FW8733 Weather Reports


time (UTC)temp
F
wind
direction
speed
knots
gust
knots
rain 1hr
in
rain 24hr
in
rain mn
in
humidity
%
barometer
mb
20260901081148 80 228 0.9 1.7 0.00 0.00 0.00 83 1019.4
20260901080643 80 199 0.9 1.7 0.00 0.00 0.00 83 1019.2
20260901080142 80 218 0.9 0.9 0.00 0.00 0.00 83 1019.2
20260901075638 80 218 0.0 0.9 0.00 0.00 0.00 82 1019.4
20260901075137 80 218 0.0 0.9 0.00 0.00 0.00 82 1019.5
20260901074636 80 218 0.0 0.9 0.00 0.00 0.00 81 1019.4
20260901074132 80 218 0.0 0.0 0.00 0.00 0.00 81 1019.5
20260901073628 80 218 0.0 0.9 0.00 0.00 0.00 81 1019.5
20260901073123 80 219 0.0 0.0 0.00 0.00 0.00 80 1019.6
20260901072619 80 217 0.9 0.9 0.00 0.00 0.00 80 1019.6
20260901072114 80 218 0.0 0.9 0.00 0.00 0.00 79 1019.7
20260901071614 80 217 0.9 0.9 0.00 0.00 0.00 79 1019.8
20260901071113 81 218 0.0 0.0 0.00 0.00 0.00 78 1019.6
20260901070607 81 218 0.0 0.0 0.00 0.00 0.00 78 1019.5
20260901070103 81 218 0.9 0.9 0.00 0.00 0.00 77 1019.5
20260901065556 82 218 0.0 0.0 0.00 0.00 0.00 77 1019.4
20260901065051 82 207 1.7 2.6 0.00 0.00 0.00 76 1019.5
20260901064548 82 180 0.9 1.7 0.00 0.00 0.00 75 1019.3
20260901064044 82 218 2.6 2.6 0.00 0.00 0.00 75 1019.5
20260901063541 82 197 1.7 2.6 0.00 0.00 0.00 75 1019.6
20260901063037 83 212 2.6 2.6 0.00 0.00 0.00 75 1019.2
20260901062532 83 144 2.6 2.6 0.00 0.00 0.00 75 1019.2
20260901062028 83 207 0.9 1.7 0.00 0.00 0.00 74 1019.1
20260901061524 83 228 0.9 0.9 0.00 0.00 0.00 74 1019.3
20260901061019 83 157 2.6 2.6 0.00 0.00 0.00 73 1018.8
20260901060513 83 208 3.5 4.3 0.00 0.00 0.00 73 1018.9
20260901060008 84 228 2.6 2.6 0.00 0.00 0.00 73 1019.0
20260901055504 84 136 4.3 6.1 0.00 0.00 0.00 72 1019.0
20260901055000 84 186 2.6 4.3 0.00 0.00 0.00 72 1018.9
20260901054457 84 175 3.5 4.3 0.00 0.00 0.00 72 1019.0
20260901053953 84 204 2.6 2.6 0.00 0.00 0.00 72 1018.7
20260901053448 84 183 4.3 5.2 0.00 0.00 0.00 72 1019.0
20260901052943 84 201 1.7 1.7 0.00 0.00 0.00 71 1018.9
20260901052439 85 178 2.6 2.6 0.00 0.00 0.00 71 1018.9
20260901051932 85 184 2.6 4.3 0.00 0.00 0.00 71 1018.8
20260901051427 85 210 1.7 1.7 0.00 0.00 0.00 70 1018.8
20260901050922 85 155 3.5 5.2 0.00 0.00 0.00 70 1018.8
20260901050418 85 205 3.5 5.2 0.00 0.00 0.00 70 1018.8
20260901045917 85 225 2.6 4.3 0.00 0.00 0.00 70 1018.5
20260901045412 85 146 3.5 5.2 0.00 0.00 0.00 69 1018.7
20260901044907 85 197 2.6 2.6 0.00 0.00 0.00 69 1018.6
20260901044403 86 179 2.6 2.6 0.00 0.00 0.00 69 1018.5
20260901043859 86 211 1.7 1.7 0.00 0.00 0.00 68 1018.6
20260901043354 86 148 5.2 6.1 0.00 0.00 0.00 67 1018.6
20260901042849 86 166 2.6 2.6 0.00 0.00 0.00 67 1018.6
20260901042343 86 171 4.3 5.2 0.00 0.00 0.00 66 1018.6
20260901041838 86 195 3.5 5.2 0.00 0.00 0.00 66 1018.7
20260901041333 86 229 1.7 1.7 0.00 0.00 0.00 66 1018.7
20260901040828 86 224 4.3 6.1 0.00 0.00 0.00 65 1018.5
20260901040327 86 191 3.5 4.3 0.00 0.00 0.00 65 1018.6
20260901035826 87 197 2.6 2.6 0.00 0.00 0.00 64 1018.8
20260901035326 87 205 2.6 2.6 0.00 0.00 0.00 64 1018.6
20260901034824 87 168 4.3 5.2 0.00 0.00 0.00 63 1018.7
20260901034320 87 120 3.5 4.3 0.00 0.00 0.00 62 1018.7
20260901033820 87 131 4.3 5.2 0.00 0.00 0.00 61 1018.5
20260901033319 87 151 1.7 4.3 0.00 0.00 0.00 59 1018.6
20260901032818 87 201 1.7 2.6 0.00 0.00 0.00 57 1018.5
20260901032317 87 218 1.7 1.7 0.00 0.00 0.00 55 1018.5
20260901031812 87 187 2.6 2.6 0.00 0.00 0.00 54 1018.2
20260901031308 87 205 2.6 2.6 0.00 0.00 0.00 54 1018.3
20260901030808 87 221 2.6 2.6 0.00 0.00 0.00 54 1018.3
20260901030303 86 183 2.6 2.6 0.00 0.00 0.00 56 1018.1
20260901025802 85 197 0.9 1.7 0.00 0.00 0.00 57 1018.0
20260901025257 85 217 0.0 0.0 0.00 0.00 0.00 56 1018.0
20260901024752 86 217 0.0 0.0 0.00 0.00 0.00 55 1017.9
20260901024251 86 217 0.0 0.0 0.00 0.00 0.00 55 1017.5
20260901023749 86 217 0.0 0.0 0.00 0.00 0.00 54 1017.6
20260901023244 86 207 0.0 0.0 0.00 0.00 0.00 54 1017.6
20260901022740 85 201 0.0 0.0 0.00 0.00 0.00 55 1017.4
20260901022235 85 221 0.0 0.0 0.00 0.00 0.00 56 1017.3
20260901021730 86 222 0.0 0.0 0.00 0.00 0.00 57 1017.4
20260901021226 86 224 0.0 0.0 0.00 0.00 0.00 56 1017.4
20260901020721 86 224 0.0 0.0 0.00 0.00 0.00 56 1017.1
20260901020216 87 222 0.0 0.0 0.00 0.00 0.00 55 1017.1
20260901015711 87 221 0.0 0.0 0.00 0.00 0.00 54 1017.1
20260901015207 88 224 0.0 0.0 0.00 0.00 0.00 52 1016.8
20260901014707 89 222 0.0 0.0 0.00 0.00 0.00 51 1016.8
20260901014203 89 215 0.0 0.0 0.00 0.00 0.00 51 1016.7
20260901013658 89 210 0.0 0.0 0.00 0.00 0.00 52 1016.6
20260901013154 89 209 0.0 0.0 0.00 0.00 0.00 53 1016.5
20260901012649 89 219 0.0 0.0 0.00 0.00 0.00 52 1016.7
20260901012144 90 219 0.0 0.0 0.00 0.00 0.00 51 1016.7
20260901011640 90 219 0.0 0.0 0.00 0.00 0.00 51 1016.5
20260901011138 91 218 0.0 0.0 0.00 0.00 0.00 50 1016.6
20260901010633 91 217 0.9 1.7 0.00 0.00 0.00 49 1016.4
20260901010133 91 219 0.0 0.0 0.00 0.00 0.00 49 1016.5
20260901005632 92 211 0.0 0.0 0.00 0.00 0.00 49 1016.5
20260901005128 92 217 0.0 0.0 0.00 0.00 0.00 49 1016.6
20260901004627 93 216 0.9 0.9 0.00 0.00 0.00 48 1016.5
20260901004122 92 194 0.9 0.9 0.00 0.00 0.00 47 1016.7
20260901003617 92 199 0.9 1.7 0.00 0.00 0.00 48 1016.6
20260901003115 93 216 0.9 0.9 0.00 0.00 0.00 47 1016.4
20260901002610 94 211 0.0 0.0 0.00 0.00 0.00 46 1016.4
20260901002105 94 164 1.7 1.7 0.00 0.00 0.00 46 1016.3
20260901001600 94 168 0.9 1.7 0.00 0.00 0.00 46 1016.3
20260901001055 94 215 0.0 0.9 0.00 0.00 0.00 46 1016.1
20260901000550 94 189 1.7 1.7 0.00 0.00 0.00 46 1016.1
20260901000046 94 212 0.9 1.7 0.00 0.00 0.00 47 1016.4
20260831235545 94 181 1.7 1.7 0.00 0.00 0.00 46 1016.3
20260831235040 94 171 3.5 5.2 0.00 0.00 0.00 45 1016.2
20260831234534 94 207 0.9 0.9 0.00 0.00 0.00 46 1016.5
20260831234030 95 142 2.6 2.6 0.00 0.00 0.00 45 1016.3
20260831233525 95 157 3.5 4.3 0.00 0.00 0.00 45 1016.3
20260831233021 96 193 0.9 1.7 0.00 0.00 0.00 45 1016.4
20260831232516 95 213 4.3 6.1 0.00 0.00 0.00 45 1016.4
20260831232012 96 162 2.6 4.3 0.00 0.00 0.00 44 1016.3
20260831231509 97 209 4.3 6.1 0.00 0.00 0.00 43 1016.3
20260831231004 97 177 4.3 6.1 0.00 0.00 0.00 43 1016.3
20260831230500 97 196 2.6 2.6 0.00 0.00 0.00 43 1016.5
20260831225959 98 198 1.7 2.6 0.00 0.00 0.00 42 1016.1
20260831225455 98 191 1.7 1.7 0.00 0.00 0.00 41 1016.3
20260831224954 98 199 0.0 0.9 0.00 0.00 0.00 40 1016.5
20260831224449 98 195 2.6 2.6 0.00 0.00 0.00 40 1016.3
20260831223944 98 155 2.6 4.3 0.00 0.00 0.00 41 1016.5
20260831223439 98 208 4.3 7.0 0.00 0.00 0.00 41 1016.3
20260831222936 98 160 1.7 2.6 0.00 0.00 0.00 41 1016.5
20260831222431 98 114 4.3 6.1 0.00 0.00 0.00 41 1016.5
20260831221926 98 216 0.9 1.7 0.00 0.00 0.00 41 1016.5
20260831221422 98 235 0.9 1.7 0.00 0.00 0.00 43 1016.5
20260831220917 98 194 2.6 2.6 0.00 0.00 0.00 40 1016.5
20260831220412 98 183 0.0 0.9 0.00 0.00 0.00 40 1016.6
20260831215907 97 171 3.5 5.2 0.00 0.00 0.00 40 1016.8
20260831215403 96 223 1.7 2.6 0.00 0.00 0.00 42 1017.0
20260831214859 98 153 0.9 1.7 0.00 0.00 0.00 41 1016.6
20260831214356 97 197 4.3 6.1 0.00 0.00 0.00 41 1016.8
20260831213852 97 205 2.6 2.6 0.00 0.00 0.00 41 1017.0
20260831213348 97 266 0.9 1.7 0.00 0.00 0.00 43 1017.1
20260831212843 97 221 1.7 2.6 0.00 0.00 0.00 43 1017.0
20260831212340 96 205 0.9 0.9 0.00 0.00 0.00 46 1017.2
20260831211838 95 182 2.6 2.6 0.00 0.00 0.00 45 1017.2
20260831211333 96 198 1.7 1.7 0.00 0.00 0.00 45 1017.4
20260831210833 98 211 4.3 6.1 0.00 0.00 0.00 44 1017.5
20260831210329 97 155 3.5 6.1 0.00 0.00 0.00 44 1017.4
20260831205829 98 187 3.5 4.3 0.00 0.00 0.00 43 1017.7
20260831205326 96 220 3.5 5.2 0.00 0.00 0.00 45 1017.7
20260831204825 97 226 0.0 0.0 0.00 0.00 0.00 47 1017.8
20260831204324 97 176 4.3 6.1 0.00 0.00 0.00 43 1018.0
20260831203824 97 220 1.7 2.6 0.00 0.00 0.00 44 1017.9
20260831203319 97 129 4.3 6.1 0.00 0.00 0.00 43 1018.3
20260831202817 97 216 3.5 5.2 0.00 0.00 0.00 44 1018.2
20260831202313 97 194 5.2 7.0 0.00 0.00 0.00 44 1018.3
20260831201812 97 224 2.6 2.6 0.00 0.00 0.00 44 1018.4
20260831201311 96 167 3.5 5.2 0.00 0.00 0.00 45 1018.4
20260831200807 95 116 6.1 7.0 0.00 0.00 0.00 46 1018.6
20260831200302 98 168 4.3 5.2 0.00 0.00 0.00 45 1018.7
20260831195757 98 154 5.2 6.1 0.00 0.00 0.00 46 1018.7
20260831195253 97 188 4.3 6.1 0.00 0.00 0.00 47 1018.7
20260831194748 97 232 2.6 2.6 0.00 0.00 0.00 47 1019.0
20260831194244 97 249 1.7 2.6 0.00 0.00 0.00 47 1018.9
20260831193737 96 155 1.7 1.7 0.00 0.00 0.00 47 1018.9
20260831193233 96 194 2.6 4.3 0.00 0.00 0.00 47 1019.1
20260831192727 97 120 5.2 7.0 0.00 0.00 0.00 47 1019.0
20260831192222 96 212 0.9 1.7 0.00 0.00 0.00 48 1019.1
20260831191719 96 280 1.7 2.6 0.00 0.00 0.00 49 1019.3
20260831191215 96 222 2.6 6.1 0.00 0.00 0.00 49 1019.3
20260831190710 96 276 2.6 4.3 0.00 0.00 0.00 48 1019.3
20260831190209 96 151 5.2 7.0 0.00 0.00 0.00 47 1019.4
20260831185704 96 181 4.3 6.1 0.00 0.00 0.00 48 1019.4
20260831185159 95 162 4.3 5.2 0.00 0.00 0.00 51 1019.6
20260831184658 96 184 5.2 7.0 0.00 0.00 0.00 50 1019.5
20260831184155 95 189 2.6 4.3 0.00 0.00 0.00 48 1019.8
20260831183654 95 170 4.3 5.2 0.00 0.00 0.00 49 1019.7
20260831183153 95 191 4.3 6.1 0.00 0.00 0.00 50 1019.6
20260831182652 95 200 3.5 4.3 0.00 0.00 0.00 50 1019.8
20260831182148 95 156 7.8 8.7 0.00 0.00 0.00 48 1019.8
20260831181644 95 176 5.2 7.0 0.00 0.00 0.00 50 1019.7
20260831181143 95 192 2.6 2.6 0.00 0.00 0.00 52 1019.9
20260831180639 95 191 0.9 1.7 0.00 0.00 0.00 53 1019.9
20260831180134 95 182 2.6 4.3 0.00 0.00 0.00 53 1020.0
20260831175628 95 163 3.5 5.2 0.00 0.00 0.00 54 1020.2
20260831175125 94 237 0.9 0.9 0.00 0.00 0.00 59 1020.1
20260831174625 95 168 3.5 4.3 0.00 0.00 0.00 53 1020.2
20260831174120 95 199 2.6 2.6 0.00 0.00 0.00 53 1020.3
20260831173618 94 200 1.7 1.7 0.00 0.00 0.00 55 1020.3
20260831173115 93 181 3.5 4.3 0.00 0.00 0.00 56 1020.3
20260831172614 93 151 4.3 6.1 0.00 0.00 0.00 56 1020.5
20260831172114 93 104 5.2 6.1 0.00 0.00 0.00 56 1020.4
20260831171610 93 220 0.9 0.9 0.00 0.00 0.00 57 1020.3
20260831171107 93 214 2.6 4.3 0.00 0.00 0.00 56 1020.7
20260831170603 92 133 2.6 4.3 0.00 0.00 0.00 59 1020.7
20260831170100 92 196 1.7 1.7 0.00 0.00 0.00 58 1020.8
20260831165555 92 178 0.9 0.9 0.00 0.00 0.00 58 1020.7
20260831165052 92 211 5.2 7.8 0.00 0.00 0.00 57 1020.6
20260831164547 92 201 4.3 5.2 0.00 0.00 0.00 58 1020.8
20260831164043 92 193 1.7 2.6 0.00 0.00 0.00 60 1020.6
20260831163537 91 120 4.3 6.1 0.00 0.00 0.00 62 1020.7
20260831163033 91 184 1.7 1.7 0.00 0.00 0.00 61 1020.8
20260831162532 92 131 4.3 8.7 0.00 0.00 0.00 60 1020.6
20260831162030 92 213 2.6 4.3 0.00 0.00 0.00 59 1020.8
20260831161527 92 198 2.6 2.6 0.00 0.00 0.00 63 1020.6
20260831161023 91 193 0.0 0.0 0.00 0.00 0.00 66 1020.6
20260831160522 89 173 1.7 1.7 0.00 0.00 0.00 65 1020.7
20260831160017 89 196 4.3 7.0 0.00 0.00 0.00 66 1020.5
20260831155512 89 201 1.7 1.7 0.00 0.00 0.00 69 1020.7
20260831155007 90 222 0.0 0.0 0.00 0.00 0.00 68 1021.0
20260831154503 90 199 2.6 4.3 0.00 0.00 0.00 66 1020.7
20260831154002 89 201 1.7 1.7 0.00 0.00 0.00 68 1020.4
20260831153457 87 189 2.6 2.6 0.00 0.00 0.00 72 1020.6
20260831152954 86 177 2.6 2.6 0.00 0.00 0.00 74 1020.8
20260831152449 87 198 0.9 0.9 0.00 0.00 0.00 73 1020.5
20260831151944 87 160 0.9 1.7 0.00 0.00 0.00 71 1020.5
20260831151443 88 199 1.7 1.7 0.00 0.00 0.00 73 1020.6
20260831150938 87 226 0.9 0.9 0.00 0.00 0.00 73 1020.5
20260831150434 87 168 3.5 4.3 0.00 0.00 0.00 74 1020.4
20260831145933 87 209 0.9 0.9 0.00 0.00 0.00 73 1020.4
20260831145430 87 184 2.6 4.3 0.00 0.00 0.00 75 1020.3
20260831144925 87 160 1.7 2.6 0.00 0.00 0.00 76 1020.5
20260831144421 87 179 2.6 5.2 0.00 0.00 0.00 75 1020.3
20260831143916 87 207 2.6 2.6 0.00 0.00 0.00 75 1020.1
20260831143411 87 156 2.6 2.6 0.00 0.00 0.00 75 1020.1
20260831142907 86 205 1.7 2.6 0.00 0.00 0.00 77 1020.1
20260831142402 86 170 1.7 2.6 0.00 0.00 0.00 77 1019.9
20260831141856 87 223 3.5 5.2 0.00 0.00 0.00 77 1020.3
20260831141350 86 203 1.7 2.6 0.00 0.00 0.00 79 1019.9
20260831140846 85 178 1.7 2.6 0.00 0.00 0.00 79 1020.0
20260831140345 85 193 0.9 1.7 0.00 0.00 0.00 81 1020.0
20260831135844 84 223 0.0 0.9 0.00 0.00 0.00 83 1019.9
20260831135334 84 165 1.7 2.6 0.00 0.00 0.00 83 1019.9
20260831134829 83 193 2.6 2.6 0.00 0.00 0.00 84 1020.0
20260831134326 84 163 2.6 4.3 0.00 0.00 0.00 83 1020.0
20260831133824 83 204 2.6 2.6 0.00 0.00 0.00 84 1019.9
20260831133324 83 213 1.7 2.6 0.00 0.00 0.00 86 1019.6
20260831132820 82 219 0.0 0.0 0.00 0.00 0.00 88 1019.6
20260831132315 81 220 0.0 0.0 0.00 0.00 0.00 90 1019.8
20260831131809 0 0.0 0.0 0.00 0.00 0.00 1019.7
20260831131305 0 0.0 0.0 0.00 0.00 0.00 1019.8
20260831130759 0 0.0 0.0 0.00 0.00 0.00 1019.7
20260831130255 76 212 0.0 0.0 0.00 0.00 0.00 99 1019.6
20260831125754 76 212 0.0 0.0 0.00 0.00 0.00 99 1019.6
20260831125250 76 211 0.0 0.9 0.00 0.00 0.00 99 1019.8
20260831124744 75 216 0.0 0.0 0.00 0.00 0.00 99 1019.5
20260831124241 75 212 0.0 0.0 0.00 0.00 0.00 99 1019.5
20260831123740 75 218 0.0 0.0 0.00 0.00 0.00 99 1019.4
20260831123239 75 218 0.0 0.0 0.00 0.00 0.00 99 1019.5
20260831122733 75 218 0.0 0.0 0.00 0.00 0.00 99 1019.5
20260831122230 75 218 0.0 0.0 0.00 0.00 0.00 99 1019.5
20260831121729 75 216 0.0 0.0 0.00 0.00 0.00 99 1019.6
20260831121226 75 218 0.0 0.0 0.00 0.00 0.00 99 1019.5
20260831120721 75 222 0.0 0.0 0.00 0.00 0.00 99 1019.3
20260831120215 75 222 0.0 0.0 0.00 0.00 0.00 99 1019.3
20260831115711 75 222 0.0 0.0 0.00 0.00 0.00 99 1019.2
20260831115207 75 222 0.0 0.0 0.00 0.00 0.00 99 1019.5
20260831114706 75 222 0.0 0.0 0.00 0.00 0.00 99 1019.2
20260831114205 75 222 0.0 0.0 0.00 0.00 0.00 98 1019.3
20260831113701 75 222 0.0 0.0 0.00 0.00 0.00 98 1019.3
20260831113155 75 222 0.0 0.0 0.00 0.00 0.00 98 1019.3
20260831112654 75 222 0.0 0.0 0.00 0.00 0.00 98 1019.3
20260831112150 0 0.0 0.0 0.00 0.00 0.00 1019.5
20260831111645 75 223 0.0 0.0 0.00 0.00 0.00 97 1019.6
20260831111141 75 223 0.0 0.0 0.00 0.00 0.00 97 1019.4
20260831110637 75 223 0.0 0.0 0.00 0.00 0.00 97 1019.1
20260831110132 0 0.0 0.0 0.00 0.00 0.00 1019.2
20260831105631 0 0.0 0.0 0.00 0.00 0.00 1019.2
20260831105126 0 0.0 0.0 0.00 0.00 0.00 1019.3
20260831104621 0 0.0 0.0 0.00 0.00 0.00 1019.5
20260831104118 0 0.0 0.0 0.00 0.00 0.00 1019.2
20260831103613 76 222 0.0 0.0 0.00 0.00 0.00 95 1019.2
20260831103109 76 222 0.0 0.0 0.00 0.00 0.00 95 1019.4
20260831102608 76 222 0.0 0.0 0.00 0.00 0.00 95 1019.4
20260831102104 76 223 0.0 0.0 0.00 0.00 0.00 95 1019.5
20260831101603 76 223 0.0 0.0 0.00 0.00 0.00 95 1019.5
20260831101100 76 223 0.0 0.0 0.00 0.00 0.00 95 1019.1
20260831100555 76 223 0.0 0.0 0.00 0.00 0.00 94 1019.2
20260831100051 0 0.0 0.0 0.00 0.00 0.00 1019.2
20260831095549 0 0.0 0.0 0.00 0.00 0.00 1019.1
20260831095044 77 226 0.0 0.0 0.00 0.00 0.00 93 1019.2
20260831094540 77 226 0.0 0.0 0.00 0.00 0.00 93 1019.3
20260831094036 77 226 0.0 0.0 0.00 0.00 0.00 93 1019.2
20260831093531 77 226 0.0 0.0 0.00 0.00 0.00 93 1019.5
20260831093027 77 226 0.0 0.0 0.00 0.00 0.00 93 1019.5
20260831092523 77 223 0.0 0.0 0.00 0.00 0.00 92 1019.1
20260831092019 77 223 0.0 0.0 0.00 0.00 0.00 92 1019.1
20260831091513 0 0.0 0.0 0.00 0.00 0.00 1019.2
20260831091009 0 0.0 0.0 0.00 0.00 0.00 1019.2
20260831090504 0 0.0 0.0 0.00 0.00 0.00 1019.3
20260831090000 0 0.0 0.0 0.00 0.00 0.00 1019.3
20260831085455 0 0.0 0.0 0.00 0.00 0.00 1019.3
20260831084954 78 199 1.7 2.6 0.00 0.00 0.00 89 1019.0
20260831084451 78 199 1.7 2.6 0.00 0.00 0.00 89 1019.3
20260831083948 78 199 1.7 2.6 0.00 0.00 0.00 89 1019.3
20260831083442 78 209 0.0 0.9 0.00 0.00 0.00 88 1019.4
20260831082942 0 0.0 0.0 0.00 0.00 0.00 1019.3
20260831082443 0 0.0 0.0 0.00 0.00 0.00 1019.1
20260831081936 78 218 0.0 0.0 0.00 0.00 0.00 86 1019.1